Volver al catálogo

STARLINK-1172

ActivoComunicacionesVLEO
NORAD 45074·PAYLOAD·🇺🇸 United States

Lanzado Jan 29, 2020 desde Cape Canaveral Space Force Station

Loading…

Próximos Pases (próximas 24 horas)

TLE

ActualizadoSource: CelesTrak SupGP

Época: Sep 14, 2026, 20:49 UTC

1 45074C 20006AG  26257.86784722  .00059760  00000+0  11716-2 0  2575
2 45074  53.1496  87.4752 0002111 141.5417 351.5498 15.46738273    13

Sigue STARLINK-1172 en tiempo real con AllMySat

Download on the App Store